Portada
METAR-TAF:

METAR-TAF

Aeroports :

DeLand, Florida, Estats Units d'Amèrica

latitud: 29-04-01N, longitud: 081-17-02W, altitud: 24 m

Observació

L'informe es va fer fa 31 minuts, a les 21:15 UTC
Vent 10 kt del Oest/Nord-Oest amb ràfegues de 16 kt
Temperatura 16°C
Humitat 27%
Pressió 1022 hPa
Visibilitat: 16.1 km
Cel clar

METAR: KDED 282115Z AUTO 30010G16KT 10SM CLR 16/M03 A3017 RMK AO2

Hora: 16:46 (21:46 UTC)


TAF: manca

Observacions i pronòstics meteorològics de més de 4000 aeroports (METAR i TAF).

Les estacions disponibles són els punts grocs i vermells al mapa.

Posi el ratolí al punt desitjat per veure el nom de l'estació.

Feu clic per veure les observacions i els pronòstics meteorològics.

Per canviar el mapa: feu clic els botons verds amb una creu de color negre per apropar; al botó verd amb un guió per allunyar la imatge; o en les fletxes verdes per a mapes adjacents.


METAR-TAF: